Location: Harrisburg
(40.2740°N, 76.8850°W)
Time: 23:43:17
(UTC-05:00)

ISS - Visible Passes

Search period start: 11 December 2017 00:00
Search period end: 21 December 2017 00:00
Orbit: 403 x 407 km, 51.6° (Epoch: 12 December)

Date Brightness Start Highest point End Pass type
(mag) Time Alt. Az. Time Alt. Az. Time Alt. Az.
11 Dec -2.2 18:24:39 10° NW 18:26:30 24° N 18:26:30 24° N visible
12 Dec -2.3 17:32:39 10° NNW 17:35:13 21° NNE 17:36:46 15° ENE visible
12 Dec -1.0 19:08:42 10° WNW 19:09:28 16° WNW 19:09:28 16° WNW visible
13 Dec -3.9 18:16:30 10° NW 18:19:46 61° NE 18:19:55 60° NE visible
14 Dec -3.1 17:24:24 10° NW 17:27:28 35° NNE 17:30:31 10° E visible
14 Dec -1.6 19:01:02 10° WNW 19:03:22 25° WSW 19:03:22 25° WSW visible
15 Dec -3.1 18:08:31 10° WNW 18:11:44 53° SW 18:14:28 13° SE visible
16 Dec -3.9 17:16:14 10° NW 17:19:31 77° NE 17:22:47 10° ESE visible
16 Dec -0.5 18:54:36 10° WSW 18:55:32 11° SW 18:56:29 10° SW visible
17 Dec -1.1 18:00:56 10° W 18:03:30 21° SW 18:06:03 10° S visible
18 Dec -2.3 17:08:14 10° WNW 17:11:22 41° SW 17:14:28 10° SSE visible
